Weather History for Walnut Ridge, AR

Change the Weather History Date:

Wednesday, November 7, 2012

  Actual Average Record
Temperature  
Mean Temperature 46 °F -  
Max Temperature 55 °F 58 °F 80 °F (1999)
Min Temperature 37 °F 42 °F 17 °F (2014)
Degree Days  
Heating Degree Days 19    
Moisture  
Dew Point 35 °F    
Average Humidity 69    
Maximum Humidity 93    
Minimum Humidity 41    
Precipitation  
Precipitation 0.00 in - - ()
Sea Level Pressure  
Sea Level Pressure 30.09 in    
Wind  
Wind Speed 9 mph (NNW)    
Max Wind Speed 23 mph    
Max Gust Speed 30 mph    
Visibility 10 miles    
Events      
Averages and records for this station are not official NWS values.
T = Trace of Precipitation, MM = Missing Value Source: NWS Daily Summary

Daily Weather History Graph

Daily Weather History Graph

Search for Another Location

Airport:

Trip Planner

Search our weather history database for the weather conditions in past years. The results will help you decide how hot, cold, wet, or windy it might be!

Date:

Astronomy

Nov. 07, 2012 Rise Set
Actual Time 6:32 AM CST 5:01 PM CST
Civil Twilight 6:05 AM CST 5:28 PM CST
Nautical Twilight 5:35 AM CST 5:59 PM CST
Astronomical Twilight 5:05 AM CST 6:29 PM CST
Moon No Moon Rise 12:59 PM CST (11/7)
Length of Visible Light 11h 22m
Length of Day
10h 28m
Last Quarter, 43% of the Moon is Illuminated
Nov 7
Last Quarter
Nov 13
New
Nov 20
First Quarter
Nov 28
Full
Dec 6
Last Quarter

Hourly Weather History & Observations

Time (CST) Temp. Windchill Dew Point Humidity Pressure Visibility Wind Dir Wind Speed Gust Speed Precip Events Conditions
12:15 AM 41.0 °F 36.4 °F 39.2 °F 93% 30.00 in 10.0 mi WSW 6.9 mph - N/A   Scattered Clouds
12:55 AM 42.8 °F 39.3 °F 41.0 °F 93% 30.00 in 9.0 mi WSW 5.8 mph - N/A   Overcast
1:15 AM 42.8 °F 41.1 °F 41.0 °F 93% 29.99 in 10.0 mi WSW 3.5 mph - N/A   Overcast
1:55 AM 41.0 °F 37.1 °F 39.2 °F 93% 30.00 in 10.0 mi West 5.8 mph - N/A   Mostly Cloudy
2:15 AM 41.0 °F 37.1 °F 39.2 °F 93% 30.00 in 10.0 mi West 5.8 mph - N/A   Clear
3:15 AM 41.0 °F 35.8 °F 37.4 °F 87% 29.99 in 10.0 mi West 8.1 mph - N/A   Clear
3:35 AM 41.0 °F 35.2 °F 37.4 °F 87% 29.99 in 10.0 mi WNW 9.2 mph - N/A   Clear
3:55 AM 41.0 °F 34.7 °F 37.4 °F 87% 30.00 in 10.0 mi WNW 10.4 mph - N/A   Clear
4:15 AM 39.2 °F 33.6 °F 37.4 °F 93% 30.01 in 10.0 mi WNW 8.1 mph - N/A   Clear
4:35 AM 39.2 °F 33.6 °F 35.6 °F 87% 30.01 in 10.0 mi WNW 8.1 mph - N/A   Clear
5:15 AM 39.2 °F 34.2 °F 35.6 °F 87% 30.02 in 10.0 mi WNW 6.9 mph - N/A   Clear
5:35 AM 39.2 °F 33.0 °F 35.6 °F 87% 30.01 in 10.0 mi West 9.2 mph - N/A   Clear
6:15 AM 39.2 °F 33.6 °F 35.6 °F 87% 30.02 in 10.0 mi West 8.1 mph - N/A   Clear
6:35 AM 39.2 °F 33.0 °F 35.6 °F 87% 30.03 in 10.0 mi West 9.2 mph - N/A   Clear
6:55 AM 39.2 °F 32.5 °F 35.6 °F 87% 30.04 in 10.0 mi West 10.4 mph - N/A   Clear
7:15 AM 39.2 °F 32.0 °F 35.6 °F 87% 30.05 in 10.0 mi West 11.5 mph - N/A   Mostly Cloudy
7:35 AM 42.8 °F 36.2 °F 35.6 °F 76% 30.05 in 10.0 mi West 12.7 mph - N/A   Mostly Cloudy
8:15 AM 44.6 °F 38.4 °F 37.4 °F 76% 30.06 in 10.0 mi WNW 12.7 mph - N/A   Clear
8:35 AM 46.4 °F 40.7 °F 37.4 °F 71% 30.06 in 10.0 mi WNW 12.7 mph - N/A   Clear
9:15 AM 50.0 °F - 37.4 °F 62% 30.06 in 10.0 mi NW 15.0 mph - N/A   Clear
9:35 AM 51.8 °F - 35.6 °F 54% 30.07 in 10.0 mi NNW 21.9 mph 26.5 mph N/A   Scattered Clouds
9:55 AM 53.6 °F - 35.6 °F 51% 30.07 in 10.0 mi NNW 21.9 mph - N/A   Clear
10:15 AM 53.6 °F - 33.8 °F 47% 30.07 in 10.0 mi NW 17.3 mph 25.3 mph N/A   Scattered Clouds
10:35 AM 53.6 °F - 33.8 °F 47% 30.07 in 10.0 mi NNW 16.1 mph 27.6 mph N/A   Mostly Cloudy
10:55 AM 53.6 °F - 33.8 °F 47% 30.08 in 10.0 mi North 18.4 mph 25.3 mph N/A   Partly Cloudy
11:16 AM 55.4 °F - 33.8 °F 44% 30.07 in 10.0 mi NNW 23.0 mph 29.9 mph N/A   Scattered Clouds
11:35 AM 53.6 °F - 32.0 °F 44% 30.08 in 10.0 mi North 19.6 mph - N/A   Scattered Clouds
11:55 AM 53.6 °F - 32.0 °F 44% 30.08 in 10.0 mi North 13.8 mph 19.6 mph N/A   Mostly Cloudy
12:35 PM 53.6 °F - 33.8 °F 47% 30.07 in 10.0 mi North 13.8 mph - N/A   Overcast
12:55 PM 53.6 °F - 33.8 °F 47% 30.08 in 10.0 mi NNW 16.1 mph - N/A   Overcast
1:35 PM 55.4 °F - 33.8 °F 44% 30.08 in 10.0 mi NNW 17.3 mph - N/A   Scattered Clouds
1:55 PM 55.4 °F - 33.8 °F 44% 30.08 in 10.0 mi NNW 13.8 mph 19.6 mph N/A   Scattered Clouds
2:15 PM 55.4 °F - 33.8 °F 44% 30.08 in 10.0 mi North 13.8 mph - N/A   Scattered Clouds
2:35 PM 55.4 °F - 33.8 °F 44% 30.08 in 10.0 mi North 11.5 mph - N/A   Mostly Cloudy
2:55 PM 55.4 °F - 32.0 °F 41% 30.09 in 10.0 mi North 9.2 mph - N/A   Partly Cloudy
3:15 PM 55.4 °F - 33.8 °F 44% 30.09 in 10.0 mi North 12.7 mph 17.3 mph N/A   Scattered Clouds
3:35 PM 53.6 °F - 32.0 °F 44% 30.10 in 10.0 mi NNW 6.9 mph - N/A   Partly Cloudy
3:55 PM 55.4 °F - 32.0 °F 41% 30.10 in 10.0 mi NNW 5.8 mph - N/A   Mostly Cloudy
4:15 PM 55.4 °F - 32.0 °F 41% 30.11 in 10.0 mi North 8.1 mph - N/A   Scattered Clouds
4:35 PM 53.6 °F - 33.8 °F 47% 30.11 in 10.0 mi North 5.8 mph - N/A   Scattered Clouds
4:55 PM 51.8 °F - 35.6 °F 54% 30.12 in 10.0 mi NNE 6.9 mph - N/A   Mostly Cloudy
5:35 PM 50.0 °F - 35.6 °F 58% 30.13 in 10.0 mi NNE 6.9 mph - N/A   Overcast
6:15 PM 48.2 °F - 35.6 °F 62% 30.15 in 10.0 mi ENE 5.8 mph - N/A   Overcast
6:36 PM 46.4 °F 44.3 °F 37.4 °F 71% 30.16 in 10.0 mi NE 4.6 mph - N/A   Overcast
6:55 PM 44.6 °F 41.4 °F 37.4 °F 76% 30.16 in 10.0 mi NE 5.8 mph - N/A   Mostly Cloudy
7:15 PM 42.8 °F 38.6 °F 35.6 °F 76% 30.16 in 10.0 mi NE 6.9 mph - N/A   Partly Cloudy
7:35 PM 42.8 °F 38.6 °F 35.6 °F 76% 30.17 in 10.0 mi NE 6.9 mph - N/A   Clear
7:55 PM 39.2 °F 35.9 °F 35.6 °F 87% 30.17 in 10.0 mi ENE 4.6 mph - N/A   Clear
8:15 PM 41.0 °F 38.0 °F 35.6 °F 81% 30.18 in 10.0 mi ENE 4.6 mph - N/A   Clear
8:55 PM 41.0 °F 39.0 °F 35.6 °F 81% 30.19 in 10.0 mi NE 3.5 mph - N/A   Clear
9:15 PM 41.0 °F 39.0 °F 35.6 °F 81% 30.20 in 10.0 mi NE 3.5 mph - N/A   Clear
9:35 PM 39.2 °F 37.0 °F 35.6 °F 87% 30.19 in 10.0 mi North 3.5 mph - N/A   Clear
9:55 PM 39.2 °F - 35.6 °F 87% 30.19 in 10.0 mi Calm Calm - N/A   Clear
10:15 PM 39.2 °F - 35.6 °F 87% 30.19 in 10.0 mi Calm Calm - N/A   Clear
10:35 PM 37.4 °F 34.9 °F 33.8 °F 87% 30.19 in 10.0 mi NNE 3.5 mph - N/A   Clear
11:15 PM 37.4 °F - 33.8 °F 87% 30.19 in 10.0 mi Calm Calm - N/A   Clear
11:35 PM 37.4 °F - 32.0 °F 81% 30.19 in 10.0 mi Calm Calm - N/A   Clear
11:56 PM 37.4 °F - 33.8 °F 87% 30.19 in 10.0 mi Calm Calm - N/A   Clear